Land O' Lakes, WI

4:52 PM CDT on September 19, 2019 (GMT -0500)
Kings Land O'Lakes

Weather History for KLNL - August, 2019

Change the Weather History Date:

Sunday, August 25, 2019

  Actual Average (KEGV) Record (KEGV)
Temperature  
Mean Temperature 56 °F -  
Max Temperature 74 °F 77 °F 91 °F (2013)
Min Temperature 41 °F 55 °F 33 °F (2008)
Degree Days  
Heating Degree Days 9    
Growing Degree Days 6 (Base 50)    
Moisture  
Dew Point 51 °F    
Average Humidity 78    
Maximum Humidity 100    
Minimum Humidity 52    
Precipitation  
Precipitation 0.00 in - - ()
Sea Level Pressure  
Sea Level Pressure 30.16 in    
Wind  
Wind Speed 4 mph ()    
Max Wind Speed 12 mph    
Max Gust Speed 18 mph    
Visibility 8.7 miles    
Events Fog    
Averages and records for this station are not official NWS values.
T = Trace of Precipitation, MM = Missing Value Source: Averaged Metar Reports

Daily Weather History Graph

Daily Weather History Graph

Search for Another Location

Airport or City:

Astronomy

Aug. 25, 2019 Rise Set
Actual Time 6:08 AM CDT 7:48 PM CDT
Civil Twilight 5:36 AM CDT 8:20 PM CDT
Nautical Twilight 4:58 AM CDT 8:58 PM CDT
Astronomical Twilight 4:16 AM CDT 9:40 PM CDT
Moon 12:33 AM CDT (8/25) 4:21 PM CDT (8/25)
Length of Visible Light 14h 43m
Length of Day
13h 40m
Waning Crescent, 29% of the Moon is Illuminated
Aug 25
Waning Crescent
Aug 30
New
Sep 5
First Quarter
Sep 13
Full
Sep 21
Last Quarter

Hourly Weather History & Observations

Time (CDT) Temp. Dew Point Humidity Pressure Visibility Wind Dir Wind Speed Gust Speed Precip Events Conditions
12:15 AM 54.7 °F 52.0 °F 91% 30.24 in 10.0 mi SSE 3.5 mph - N/A   Clear
12:35 AM 53.6 °F 51.6 °F 93% 30.25 in 10.0 mi Calm Calm - N/A   Clear
12:55 AM 53.1 °F 51.8 °F 95% 30.24 in 10.0 mi Calm Calm - N/A   Scattered Clouds
1:15 AM 52.2 °F 50.9 °F 95% 30.24 in 10.0 mi SSE 3.5 mph - N/A   Scattered Clouds
1:35 AM 51.6 °F 50.5 °F 96% 30.24 in 10.0 mi SSE 3.5 mph - N/A   Clear
1:55 AM 50.9 °F 50.0 °F 97% 30.24 in 10.0 mi Calm Calm - N/A   Clear
2:15 AM 48.7 °F 47.8 °F 97% 30.24 in 10.0 mi Calm Calm - N/A   Clear
2:55 AM 49.8 °F 49.1 °F 97% 30.24 in 10.0 mi Calm Calm - N/A   Clear
3:15 AM 50.0 °F 49.5 °F 98% 30.24 in 10.0 mi Calm Calm - N/A   Clear
3:35 AM 50.0 °F 49.5 °F 98% 30.24 in 10.0 mi Calm Calm - N/A   Clear
3:55 AM 46.6 °F 45.7 °F 97% 30.23 in 0.8 mi Calm Calm - N/A   Mist
4:15 AM 45.0 °F 44.4 °F 98% 30.23 in 0.2 mi Calm Calm - N/A Fog Fog
4:35 AM 43.7 °F 43.2 °F 98% 30.23 in 0.2 mi Calm Calm - N/A Fog Fog
4:55 AM 43.0 °F 42.8 °F 99% 30.23 in 0.2 mi Calm Calm - N/A Fog Fog
5:15 AM 42.3 °F 42.1 °F 99% 30.23 in 0.5 mi Calm Calm - N/A Fog Fog
5:35 AM 41.5 °F 41.2 °F 99% 30.23 in 0.2 mi Calm Calm - N/A Fog Fog
5:55 AM 41.4 °F 41.4 °F 100% 30.23 in 0.2 mi Calm Calm - N/A Fog Fog
6:15 AM 41.0 °F 41.0 °F 100% 30.23 in 1.0 mi Calm Calm - N/A   Mist
6:35 AM 41.5 °F 41.5 °F 100% 30.23 in 2.5 mi Calm Calm - N/A   Scattered Clouds
6:55 AM 43.5 °F 43.5 °F 100% 30.23 in 10.0 mi Calm Calm - N/A   Mostly Cloudy
7:15 AM 50.2 °F 50.2 °F 100% 30.23 in 10.0 mi SE 3.5 mph - N/A   Overcast
7:35 AM 53.8 °F 53.8 °F 100% 30.22 in 10.0 mi SE 4.6 mph - N/A   Mostly Cloudy
7:55 AM 56.1 °F 56.1 °F 100% 30.22 in 10.0 mi SSE 4.6 mph - N/A   Clear
8:15 AM 57.9 °F 57.9 °F 100% 30.22 in 10.0 mi SSE 4.6 mph - N/A   Clear
8:35 AM 60.1 °F 56.1 °F 87% 30.21 in 10.0 mi SSE 5.8 mph - N/A   Clear
8:55 AM 62.1 °F 54.5 °F 76% 30.21 in 10.0 mi SSE 9.2 mph - N/A   Clear
9:15 AM 63.7 °F 54.1 °F 71% 30.20 in 10.0 mi South 8.1 mph - N/A   Clear
9:35 AM 64.9 °F 53.8 °F 67% 30.20 in 10.0 mi SSE 6.9 mph - N/A   Clear
9:55 AM 66.0 °F 52.3 °F 61% 30.20 in 10.0 mi South 9.2 mph - N/A   Scattered Clouds
10:15 AM 65.3 °F 52.2 °F 62% 30.19 in 10.0 mi South 6.9 mph - N/A   Scattered Clouds
10:35 AM 66.4 °F 51.8 °F 59% 30.19 in 10.0 mi South 9.2 mph - N/A   Mostly Cloudy
10:55 AM 65.3 °F 51.6 °F 61% 30.19 in 10.0 mi South 8.1 mph - N/A   Overcast
11:15 AM 67.1 °F 51.8 °F 58% 30.18 in 10.0 mi South 10.4 mph - N/A   Mostly Cloudy
11:35 AM 69.3 °F 51.6 °F 53% 30.17 in 10.0 mi South 10.4 mph - N/A   Scattered Clouds
11:55 AM 69.6 °F 51.8 °F 53% 30.17 in 10.0 mi South 11.5 mph 18.4 mph N/A   Scattered Clouds
12:15 PM 69.6 °F 52.2 °F 54% 30.17 in 10.0 mi South 9.2 mph - N/A   Mostly Cloudy
12:35 PM 69.6 °F 51.4 °F 52% 30.16 in 10.0 mi South 10.4 mph 18.4 mph N/A   Mostly Cloudy
12:55 PM 68.9 °F 51.8 °F 54% 30.16 in 10.0 mi South 8.1 mph 16.1 mph N/A   Mostly Cloudy
1:15 PM 70.7 °F 52.5 °F 52% 30.15 in 10.0 mi SSE 11.5 mph - N/A   Scattered Clouds
1:35 PM 70.3 °F 53.1 °F 54% 30.14 in 10.0 mi SE 11.5 mph 17.3 mph N/A   Scattered Clouds
1:55 PM 70.5 °F 53.4 °F 55% 30.13 in 10.0 mi SE 8.1 mph 16.1 mph N/A   Mostly Cloudy
2:15 PM 70.9 °F 53.1 °F 53% 30.12 in 10.0 mi SE 9.2 mph - N/A   Mostly Cloudy
2:35 PM 71.8 °F 53.2 °F 52% 30.12 in 10.0 mi SE 11.5 mph - N/A   Mostly Cloudy
4:55 PM 69.8 °F 52.0 °F 53% 30.07 in 10.0 mi South 9.2 mph - N/A   Scattered Clouds
5:15 PM 71.1 °F 53.2 °F 53% 30.07 in 10.0 mi South 4.6 mph - N/A   Clear
5:35 PM 69.1 °F 53.6 °F 58% 30.07 in 10.0 mi SSE 9.2 mph - N/A   Scattered Clouds
5:55 PM 67.8 °F 54.1 °F 62% 30.07 in 10.0 mi SE 4.6 mph - N/A   Scattered Clouds
6:15 PM 67.3 °F 55.2 °F 65% 30.06 in 10.0 mi SE 4.6 mph - N/A   Scattered Clouds
6:35 PM 67.3 °F 54.5 °F 63% 30.06 in 10.0 mi SE 6.9 mph - N/A   Scattered Clouds
7:15 PM 65.3 °F 53.6 °F 66% 30.07 in 10.0 mi SE 6.9 mph - N/A   Scattered Clouds
7:35 PM 64.0 °F 53.6 °F 69% 30.07 in 10.0 mi SSE 5.8 mph - N/A   Scattered Clouds
7:55 PM 63.1 °F 53.6 °F 71% 30.07 in 10.0 mi SSE 6.9 mph - N/A   Clear
8:15 PM 62.2 °F 53.8 °F 74% 30.07 in 10.0 mi SE 5.8 mph - N/A   Clear
8:35 PM 61.3 °F 53.8 °F 76% 30.07 in 10.0 mi SE 4.6 mph - N/A   Clear
8:55 PM 61.2 °F 53.8 °F 77% 30.07 in 10.0 mi SE 4.6 mph - N/A   Clear
9:15 PM 60.8 °F 53.6 °F 77% 30.07 in 10.0 mi SE 5.8 mph - N/A   Clear
9:35 PM 59.7 °F 53.6 °F 80% 30.06 in 10.0 mi SE 5.8 mph - N/A   Clear
9:55 PM 59.0 °F 53.4 °F 82% 30.07 in 10.0 mi SE 4.6 mph - N/A   Clear
10:15 PM 58.1 °F 53.2 °F 84% 30.06 in 10.0 mi SE 3.5 mph - N/A   Clear
10:35 PM 58.5 °F 54.0 °F 85% 30.05 in 10.0 mi SE 4.6 mph - N/A   Clear
10:55 PM 58.3 °F 53.6 °F 84% 30.05 in 10.0 mi SSE 3.5 mph - N/A   Clear
11:15 PM 57.9 °F 53.4 °F 85% 30.05 in 10.0 mi SE 3.5 mph - N/A   Clear
11:35 PM 56.3 °F 52.9 °F 88% 30.05 in 10.0 mi SE 4.6 mph - N/A   Clear
11:55 PM 56.8 °F 53.4 °F 88% 30.04 in 10.0 mi SE 4.6 mph - N/A   Clear